User: anonymous   Login
Location: Acheville
(50.3840°N, 2.8827°E)
Time: 16:38:03
(UTC+00:00)
Language:

Cosmos 1328 - Orbit

View from above orbital plane
View from above orbital plane
View from above satellite
View from above satellite

Ground track
Ground track

The orbit data is extracted from the following two-line orbital elements,

1 12987U 81117A   22021.31335375  .00000855  00000-0  52397-4 0  9990
2 12987  82.5068  45.4951 0019667  20.1160 340.0839 15.08697183185543
Epoch (UTC): 21 January 2022 07:31:13
Eccentricity: 0.0019667
inclination: 82.5068°
perigee height: 526 km
apogee height: 554 km
right ascension of ascending node: 45.4951°
argument of perigee: 20.1160°
revolutions per day: 15.08697183
mean anomaly at epoch: 340.0839°
orbit number at epoch: 18554

The dashed part of the orbit path shows where the satellite is in the earth's shadow,  

DLR